[[{"header":{"parameterUnit":"m.s-1","parameterCategory":1,"la1":30.2991,"la2":30.254,"lo1":-89.0895,"lo2":-89.0444,"dy":0.0017,"dx":0.0017,"nx":28,"ny":28,"refTime":"2024-12-31T09:00:00:Z","depth":0,"parameterNumber":2,"parameterNumberName":"U-component_of_WINDS"},"data":[0,0,0,0,0,0,0,0,0,0,0,0,0,0,0,0,0,0,0,0,0,0,0,0,0,0,0,0,0,0,0,0,0,0,0,0,0,0,0,0,0,0,0,0,0,0,0,0,0,0,0,0,0,0,0,0,0,0,-1.3854,-1.3855,0,-1.3929,-1.393,-1.3931,-1.3884,-1.3882,-1.3879,-1.3877,-1.3957,-1.3961,-1.3965,0,0,0,0,0,0,0,0,0,0,0,0,0,-1.3672,-1.3676,-1.3854,-1.3855,-1.3856,-1.3929,-1.393,-1.3931,-1.3884,-1.3881,-1.3879,-1.3876,-1.3956,-1.3961,-1.3966,0,0,0,0,0,0,0,0,0,0,0,0,0,-1.375,-1.3677,-1.3854,-1.3841,-1.3841,-1.3929,-1.393,-1.3932,-1.3885,-1.3881,-1.3878,-1.3875,-1.3954,-1.396,-1.3966,-1.4072,0,0,-1.3986,-1.3989,0,0,0,0,0,0,0,0,-1.3745,-1.3756,-1.3842,-1.3842,-1.3842,-1.3894,-1.3895,-1.3979,-1.3886,-1.3868,-1.3877,-1.3873,-1.3939,-1.3946,-1.3968,-1.4076,-1.408,-1.3986,-1.399,-1.3993,-1.3995,0,0,0,0,0,0,0,-1.374,-1.3753,-1.3884,-1.3844,-1.3843,-1.3832,-1.384,-1.3911,-1.3922,-1.3869,-1.3866,-1.3876,-1.3938,-1.3962,-1.3969,-1.4081,-1.3986,-1.3992,-1.3996,-1.3998,-1.428,-1.4284,0,0,0,0,0,0,-1.3735,-1.3749,-1.3882,-1.3886,-1.3784,-1.3838,-1.3847,-1.3881,-1.3921,-1.3923,-1.3878,-1.3873,-1.3953,-1.3962,-1.3972,-1.41,-1.3993,-1.3999,-1.4002,-1.4276,-1.4281,-1.4285,0,0,0,0,0,0,-1.3732,-1.3748,-1.3879,-1.3817,-1.3832,-1.3845,-1.3884,-1.3884,-1.3907,-1.3927,-1.3929,-1.39,-1.395,-1.3963,-1.4048,-1.4102,-1.4002,-1.4007,-1.4272,-1.4278,-1.4283,-1.4355,0,0,0,0,0,0,-1.3726,-1.3746,-1.3787,-1.3818,-1.3836,-1.3953,-1.3887,-1.3888,-1.3918,-1.3912,-1.3949,-1.3951,-1.3949,-1.4039,-1.4054,-1.4109,-1.4012,-1.4267,-1.4275,-1.4281,-1.4348,-1.4363,-1.4375,0,0,0,0,0,-1.372,-1.3805,-1.3789,-1.3805,-1.3886,-1.3956,-1.3966,-1.3961,-1.3923,-1.3963,-1.3976,-1.395,-1.4093,-1.4048,-1.4065,-1.4122,-1.4264,-1.4273,-1.4281,-1.4342,-1.436,-1.4375,0,0,0,0,0,0,-1.3781,-1.3808,-1.3791,-1.3888,-1.392,-1.3948,-1.3999,-1.398,-1.4024,-1.4016,-1.4008,-1.4017,-1.4106,-1.4122,-1.4071,-1.4227,-1.4172,-1.4185,-1.4213,-1.423,-1.4243,-1.4239,-1.4017,0,0,0,0,0,-1.3805,-1.3858,-1.388,-1.3963,-1.398,-1.3987,-1.4017,-1.401,-1.4043,-1.4057,-1.4075,-1.4109,-1.4161,-1.4196,-1.4245,-1.4349,-1.4357,-1.4397,-1.441,-1.4421,-1.4433,-1.449,-1.4508,-1.4312,-1.4312,-1.4312,0,0,-1.3857,-1.3878,-1.3913,-1.3976,-1.4,-1.4057,-1.3999,-1.4061,-1.4103,-1.4066,-1.4148,-1.4162,-1.4199,-1.4294,-1.4337,-1.4311,-1.4488,-1.4432,-1.444,-1.4446,-1.45,-1.4519,-1.4535,-1.4318,-1.4317,-1.4316,0,0,-1.398,-1.4001,-1.4073,-1.4098,-1.4134,-1.4137,-1.4155,-1.4185,-1.4194,-1.4274,-1.4248,-1.4298,-1.4388,-1.4416,-1.4442,-1.4574,-1.4552,-1.459,-1.4661,-1.4717,-1.4732,-1.4746,-1.4795,-1.4812,-1.46,-1.4601,-1.4601,0,-1.404,-1.4123,-1.4113,-1.4177,-1.4207,-1.4173,-1.4247,-1.4272,-1.4323,-1.4344,-1.4313,-1.4425,-1.4447,-1.4549,-1.4581,-1.4602,-1.4623,-1.4587,-1.473,-1.4744,-1.4757,-1.4803,-1.4821,-1.4605,-1.4604,-1.4604,-1.4604,0,-1.4196,-1.4254,-1.4308,-1.4357,-1.4392,-1.4461,-1.4462,-1.4498,-1.4487,-1.4494,-1.4577,-1.4603,-1.4657,-1.4679,-1.467,-1.478,-1.4762,-1.4731,-1.4677,-1.478,-1.4824,-1.4841,-1.4611,-1.461,-1.4608,-1.4607,0,0,-1.4363,-1.4403,-1.4424,-1.4446,-1.4482,-1.4528,-1.4595,-1.4646,-1.4679,-1.4714,-1.4771,-1.4847,-1.4818,-1.4847,-1.484,-1.4889,-1.4993,-1.4851,-1.4852,-1.4879,-1.5118,-1.5143,-1.5164,-1.4978,-1.4981,-1.4984,-1.5115,0,-1.449,-1.4606,-1.4598,-1.4709,-1.4763,-1.4731,-1.479,-1.4819,-1.4827,-1.4875,-1.4883,-1.4938,-1.4895,-1.4912,-1.4959,-1.4971,-1.5042,-1.4961,-1.5033,-1.5036,-1.5027,-1.5186,-1.5214,-1.5337,-1.5132,-1.5135,-1.5137,0,-1.4654,-1.4695,-1.4811,-1.4839,-1.4861,-1.4914,-1.4961,-1.5006,-1.5038,-1.5041,-1.5073,-1.5057,-1.5125,-1.5067,-1.5162,-1.5107,-1.5135,-1.5146,-1.515,-1.5159,-1.5095,-1.5202,-1.5376,-1.5395,-1.5164,-1.5161,-1.516,0,-1.4767,-1.485,-1.493,-1.4949,-1.4984,-1.5022,-1.5038,-1.5067,-1.5098,-1.5139,-1.516,-1.5208,-1.5235,-1.5273,-1.5271,-1.5228,-1.5368,-1.5309,-1.5373,-1.5373,-1.5407,-1.5405,-1.559,-1.542,-1.542,-1.542,-1.5419,0,-1.4912,-1.4984,-1.4981,-1.5031,-1.5111,-1.5101,-1.5181,-1.5193,-1.5218,-1.527,-1.5245,-1.5294,-1.5287,-1.5337,-1.5336,-1.5415,-1.5427,-1.5432,-1.5431,-1.5436,-1.5436,-1.5457,-1.5449,-1.5425,-1.5424,-1.5423,-1.5422,0,-1.5052,-1.5053,-1.5138,-1.5163,-1.5171,-1.523,-1.5251,-1.5299,-1.5303,-1.5369,-1.5384,-1.5392,-1.5449,-1.545,-1.5515,-1.5514,-1.5612,-1.56,-1.5602,-1.56,-1.5665,-1.566,-1.5872,-1.59,-1.571,-1.5712,-1.5714,0,-1.5146,-1.5201,-1.5231,-1.5264,-1.5282,-1.5335,-1.5366,-1.5358,-1.5392,-1.5432,-1.5475,-1.5529,-1.5573,-1.5665,-1.5678,-1.5727,-1.5718,-1.5789,-1.5726,-1.5729,-1.5722,-1.572,-1.5726,-1.5803,-1.5805,-1.5806,-1.5808,0,-1.5313,-1.531,-1.5356,-1.5403,-1.5441,-1.5477,-1.5511,-1.5539,-1.5534,-1.5574,-1.5631,-1.5665,-1.5731,-1.5786,-1.5834,-1.5851,-1.583,-1.5827,-1.5845,-1.5852,-1.5851,-1.5854,-1.5638,-1.5823,-1.5821,-1.582,-1.582,-1.5819,-1.5435,-1.5482,-1.5511,-1.5564,-1.5587,-1.5619,-1.5665,-1.5674,-1.5722,-1.5775,-1.5766,-1.5831,-1.5861,-1.5923,-1.5944,-1.5995,-1.5971,-1.5996,-1.6003,-1.601,-1.6018,-1.584,-1.6003,-1.6003,-1.6003,-1.6002,-1.6002,0,-1.5602,-1.5619,-1.5667,-1.5714,-1.5755,-1.5729,-1.5764,-1.5801,-1.5858,-1.5887,-1.593,-1.5996,-1.6049,-1.6064,-1.6115,-1.6153,-1.6144,-1.6167,-1.6166,-1.617,-1.6036,-1.6017,-1.6173,-1.6173,-1.6173,-1.6173,-1.6173,-1.6173,-1.5695,-1.5774,-1.5775,-1.5866,-1.5881,-1.5944,-1.5967,-1.5996,-1.6019,-1.6094,-1.6138,-1.6146,-1.6171,-1.6223,-1.627,-1.6273,-1.6294,-1.6322,-1.6321,-1.6196,-1.6179,-1.6163,-1.6145,-1.6326,-1.6326,-1.6451,-1.6452,-1.6453]},{"header":{"parameterUnit":"m.s-1","parameterCategory":1,"la1":30.2991,"la2":30.254,"lo1":-89.0895,"lo2":-89.0444,"dy":0.0017,"dx":0.0017,"nx":28,"ny":28,"refTime":"2024-12-31T09:00:00:Z","depth":0,"parameterNumber":3,"parameterNumberName":"V-component_of_WINDS"},"data":[0,0,0,0,0,0,0,0,0,0,0,0,0,0,0,0,0,0,0,0,0,0,0,0,0,0,0,0,0,0,0,0,0,0,0,0,0,0,0,0,0,0,0,0,0,0,0,0,0,0,0,0,0,0,0,0,0,0,-5.8346,-5.8347,0,-5.8464,-5.8465,-5.8466,-5.8383,-5.8379,-5.8375,-5.8372,-5.8488,-5.8495,-5.8501,0,0,0,0,0,0,0,0,0,0,0,0,0,-5.8043,-5.8049,-5.8345,-5.8347,-5.8348,-5.8463,-5.8465,-5.8467,-5.8383,-5.8379,-5.8374,-5.837,-5.8486,-5.8494,-5.8502,0,0,0,0,0,0,0,0,0,0,0,0,0,-5.8169,-5.8051,-5.8345,-5.8321,-5.832,-5.8463,-5.8465,-5.8467,-5.8384,-5.8379,-5.8373,-5.8368,-5.8483,-5.8493,-5.8503,-5.8675,0,0,-5.8533,-5.8537,0,0,0,0,0,0,0,0,-5.8162,-5.818,-5.8323,-5.8323,-5.8322,-5.8403,-5.8401,-5.8537,-5.8386,-5.836,-5.8372,-5.8365,-5.8464,-5.8475,-5.8509,-5.868,-5.8685,-5.8534,-5.854,-5.8544,-5.8547,0,0,0,0,0,0,0,-5.8153,-5.8175,-5.8392,-5.8325,-5.8325,-5.8302,-5.8314,-5.8426,-5.8441,-5.8362,-5.8356,-5.8371,-5.8463,-5.85,-5.8511,-5.8687,-5.8533,-5.8542,-5.8548,-5.8552,-5.9004,-5.901,0,0,0,0,0,0,-5.8147,-5.8168,-5.8388,-5.8396,-5.8227,-5.8312,-5.8326,-5.8382,-5.844,-5.8444,-5.8376,-5.8367,-5.8486,-5.85,-5.8515,-5.872,-5.8544,-5.8553,-5.8559,-5.8998,-5.9005,-5.9012,0,0,0,0,0,0,-5.8141,-5.8168,-5.8383,-5.828,-5.8306,-5.8324,-5.8388,-5.8388,-5.8425,-5.8451,-5.8453,-5.8412,-5.8482,-5.8501,-5.8636,-5.8723,-5.8557,-5.8566,-5.8991,-5.9,-5.9009,-5.9133,0,0,0,0,0,0,-5.8133,-5.8166,-5.8233,-5.8283,-5.8312,-5.8504,-5.8394,-5.8394,-5.8443,-5.8432,-5.8485,-5.8488,-5.8479,-5.8622,-5.8646,-5.8734,-5.8574,-5.8983,-5.8995,-5.9006,-5.9121,-5.9145,-5.9166,0,0,0,0,0,-5.8123,-5.8262,-5.8237,-5.8264,-5.8396,-5.851,-5.8526,-5.8514,-5.845,-5.8517,-5.8533,-5.8487,-5.871,-5.8636,-5.8662,-5.8755,-5.8977,-5.8992,-5.9005,-5.9111,-5.914,-5.9165,0,0,0,0,0,0,-5.8222,-5.8269,-5.8241,-5.8401,-5.8452,-5.8495,-5.8579,-5.8546,-5.8615,-5.8602,-5.8582,-5.8595,-5.8736,-5.8758,-5.8676,-5.8924,-5.8833,-5.8853,-5.8905,-5.8933,-5.8955,-5.8947,-5.8582,0,0,0,0,0,-5.8262,-5.8352,-5.8387,-5.8525,-5.8553,-5.8562,-5.8611,-5.8597,-5.8648,-5.8669,-5.8695,-5.8746,-5.8827,-5.8881,-5.8957,-5.9123,-5.9133,-5.9199,-5.9222,-5.924,-5.9257,-5.9346,-5.9376,-5.9057,-5.9057,-5.9057,0,0,-5.8347,-5.8384,-5.8441,-5.8546,-5.8584,-5.8676,-5.858,-5.8682,-5.8749,-5.8684,-5.8813,-5.8834,-5.8889,-5.904,-5.9108,-5.9063,-5.9348,-5.9257,-5.9272,-5.9279,-5.9364,-5.9394,-5.9421,-5.9066,-5.9065,-5.9063,0,0,-5.8549,-5.8586,-5.8705,-5.8745,-5.8804,-5.8809,-5.8838,-5.8886,-5.8898,-5.9028,-5.898,-5.9059,-5.92,-5.9241,-5.928,-5.9496,-5.9456,-5.9521,-5.9638,-5.9725,-5.9751,-5.9773,-5.985,-5.9878,-5.9538,-5.9539,-5.9539,0,-5.8646,-5.8785,-5.877,-5.8875,-5.8922,-5.8868,-5.8988,-5.9027,-5.9108,-5.9141,-5.9089,-5.9265,-5.9297,-5.9458,-5.951,-5.9544,-5.9575,-5.9516,-5.9748,-5.9771,-5.9791,-5.9865,-5.9894,-5.9546,-5.9545,-5.9545,-5.9544,0,-5.8901,-5.8998,-5.9087,-5.9168,-5.9224,-5.9337,-5.9337,-5.9396,-5.9377,-5.9387,-5.9519,-5.9557,-5.9639,-5.9676,-5.9658,-5.9834,-5.9804,-5.9751,-5.966,-5.9829,-5.9898,-5.9926,-5.9557,-5.9554,-5.9552,-5.955,0,0,-5.917,-5.9241,-5.9274,-5.931,-5.9371,-5.9444,-5.9553,-5.9635,-5.9686,-5.9743,-5.9833,-5.9953,-5.9904,-5.9949,-5.9934,-6.0011,-6.018,-5.9948,-5.9949,-5.9991,-6.0375,-6.0416,-6.0448,-6.0153,-6.0158,-6.0163,-6.0371,0,-5.9375,-5.9567,-5.9557,-5.9736,-5.9824,-5.9774,-5.9868,-5.9915,-5.9927,-6.0002,-6.0013,-6.0099,-6.0029,-6.0055,-6.0129,-6.0144,-6.0257,-6.0129,-6.0236,-6.024,-6.0225,-6.0484,-6.0527,-6.0722,-6.0398,-6.0402,-6.0405,0,-5.9641,-5.9709,-5.9897,-5.9945,-5.9981,-6.0067,-6.0141,-6.0214,-6.0265,-6.0268,-6.0318,-6.0291,-6.0399,-6.0304,-6.0452,-6.0365,-6.0408,-6.0422,-6.0429,-6.0439,-6.0334,-6.0502,-6.0784,-6.0814,-6.0447,-6.0444,-6.0441,0,-5.9818,-5.9956,-6.0087,-6.0119,-6.0178,-6.0239,-6.0265,-6.0311,-6.0361,-6.0425,-6.0458,-6.0533,-6.0574,-6.0632,-6.0626,-6.0557,-6.0776,-6.0681,-6.0781,-6.0782,-6.083,-6.0827,-6.1124,-6.0857,-6.0856,-6.0856,-6.0855,0,-6.0049,-6.0167,-6.0168,-6.0248,-6.0378,-6.0363,-6.0491,-6.0511,-6.0552,-6.0634,-6.0594,-6.0672,-6.0658,-6.0735,-6.073,-6.0853,-6.0872,-6.0876,-6.0874,-6.0881,-6.088,-6.0909,-6.0896,-6.0864,-6.0862,-6.086,-6.0859,0,-6.027,-6.0276,-6.0415,-6.0459,-6.0473,-6.0566,-6.0603,-6.0678,-6.0686,-6.0791,-6.0814,-6.0826,-6.0915,-6.0914,-6.1014,-6.1011,-6.1162,-6.1143,-6.1146,-6.1142,-6.1243,-6.1234,-6.1569,-6.1612,-6.1316,-6.1319,-6.1321,0,-6.0418,-6.0507,-6.0561,-6.0614,-6.0646,-6.0731,-6.0782,-6.0771,-6.0825,-6.089,-6.0958,-6.1043,-6.111,-6.1254,-6.127,-6.1347,-6.133,-6.1442,-6.1341,-6.1345,-6.1332,-6.1327,-6.1336,-6.1462,-6.1465,-6.1468,-6.147,0,-6.0679,-6.0677,-6.0754,-6.0832,-6.0894,-6.0954,-6.1009,-6.1054,-6.1049,-6.1112,-6.1203,-6.1256,-6.1358,-6.1443,-6.1516,-6.1541,-6.1506,-6.1502,-6.1529,-6.1537,-6.1535,-6.1538,-6.1201,-6.1494,-6.1492,-6.149,-6.1489,-6.1488,-6.0868,-6.0946,-6.0996,-6.1082,-6.1122,-6.1175,-6.1248,-6.1266,-6.1342,-6.1426,-6.1414,-6.1515,-6.1562,-6.1658,-6.1689,-6.1767,-6.1728,-6.1767,-6.1777,-6.1787,-6.1799,-6.1523,-6.178,-6.178,-6.1779,-6.1778,-6.1778,0,-6.1128,-6.1158,-6.1237,-6.1317,-6.1384,-6.1345,-6.1404,-6.1462,-6.1553,-6.1601,-6.1669,-6.1773,-6.1854,-6.1877,-6.1956,-6.2014,-6.1999,-6.2035,-6.2031,-6.2037,-6.183,-6.1799,-6.2045,-6.2045,-6.2045,-6.2045,-6.2045,-6.2045,-6.1271,-6.14,-6.1404,-6.1552,-6.158,-6.168,-6.1717,-6.1765,-6.1803,-6.1922,-6.199,-6.2005,-6.2043,-6.2124,-6.2196,-6.2201,-6.2231,-6.2274,-6.2272,-6.2078,-6.2052,-6.2026,-6.1997,-6.2281,-6.2281,-6.2473,-6.2475,-6.2476]}]]